This is the latest recevied weather packets stored in our database for station/object K1KOF. If no packets are shown the sender has not sent any weather packets the latest 10 day(s).
| Time | Temp. | Humidity | Pressure | Rain* | Wind** | Luminosity | Snow |
|---|---|---|---|---|---|---|---|
| 1778262158 | 21.67° C | 52% | 1027.1 hPa | 0 mm | - | 760 W/m² | - |
| 1778261855 | 21.67° C | 56% | 1026.9 hPa | 0 mm | - | 772 W/m² | - |
| 1778261551 | 21.67° C | 53% | 1027 hPa | 0 mm | - | 532 W/m² | - |
| 1778261247 | 21.11° C | 50% | 1027.3 hPa | 0 mm | - | 559 W/m² | - |
| 1778260944 | 21.11° C | 53% | 1026.7 hPa | 0 mm | - | 592 W/m² | - |
| 1778260641 | 21.11° C | 55% | 1027.2 hPa | 0 mm | - | 641 W/m² | - |
| 1778260337 | 21.11° C | 55% | 1027.2 hPa | 0 mm | - | 691 W/m² | - |
| 1778260034 | 21.11° C | 57% | 1027.3 hPa | 0 mm | - | 667 W/m² | - |
| 1778259732 | 21.11° C | 57% | 1027.5 hPa | 0 mm | - | 779 W/m² | - |
| 1778259429 | 20.56° C | 58% | 1027.8 hPa | 0 mm | - | 684 W/m² | - |
| 1778259126 | 21.11° C | 60% | 1027.7 hPa | 0 mm | - | 805 W/m² | - |
| 1778258822 | 20.56° C | 59% | 1027.7 hPa | 0 mm | - | 711 W/m² | - |
| 1778258519 | 20.56° C | 60% | 1027.8 hPa | 0 mm | - | 615 W/m² | - |
| 1778258217 | 20° C | 58% | 1028 hPa | 0 mm | - | 690 W/m² | - |
| 1778257914 | 20.56° C | 59% | 1028.1 hPa | 0 mm | - | 710 W/m² | - |
| 1778257609 | 20.56° C | 62% | 1028.2 hPa | 0 mm | - | 483 W/m² | - |
| 1778257307 | 20.56° C | 61% | 1028.1 hPa | 0 mm | - | 120 W/m² | - |
| 1778257004 | 20.56° C | 58% | 1028.1 hPa | 0 mm | - | 451 W/m² | - |
| 1778256701 | 20° C | 59% | 1028.2 hPa | 0 mm | - | 724 W/m² | - |
| 1778256400 | 20° C | 59% | 1028.2 hPa | 0 mm | - | 406 W/m² | - |
| 1778256097 | 19.44° C | 61% | 1028.3 hPa | 0 mm | - | 509 W/m² | - |
| 1778255794 | 19.44° C | 58% | 1028.6 hPa | 0 mm | - | 306 W/m² | - |
| 1778255491 | 19.44° C | 61% | 1028.5 hPa | 0 mm | - | 283 W/m² | - |
| 1778255188 | 19.44° C | 59% | 1028.7 hPa | 0 mm | - | 256 W/m² | - |
| 1778254884 | 19.44° C | 61% | 1028.7 hPa | 0 mm | - | 636 W/m² | - |
* Rain latest hour (hover to see other rain measurements)
** Current wind speed in m/s (hover to see current wind gust speed)